Forside
METAR-TAF:

METAR-TAF

Lufthavne :

Pittsburg, Kansas, USA

Breddekreds: 37-26-58N, længdekreds: 094-43-52W, højde: 290 m

Aktuelle vejr

Denne rapport blev lavet for 23 minutter siden, kl. 17:15 UTC
Vind 16 kt fra sydøst med vindstød på up til 22 kt
Temperatur 0°C
Fugtighed 69%
Tryk 1020 hPa
Sigt: 16.1 km
skyfri

METAR: KPTS 211715Z AUTO 13016G22KT 10SM CLR 00/M05 A3011 RMK AO2 T00001053

Tid: 11:38 (17:38 UTC)


TAF: fraværende

Vejrobservationer og prognoser fra mere end 4000 lufthavne (METAR og TAF).

De gule og røde prikker repræsenterer de meteorologiske stationer.

Flyt musen over at se navnet på stationen.

Så klik over at se vejr observationer og prognoser.

At skifte det kort: Klik på de grønne knapper med et sort kors for at zoome ind; på den grønne knap med en bindestreg for at zoome ud; eller på de grønne pile for tilstødende kort.


METAR-TAF: